Weather History for Joplin, MO

Change the Weather History Date:

Thursday, March 14, 2013

  Actual Average Record
Temperature  
Mean Temperature 54 °F 48 °F  
Max Temperature 72 °F 59 °F 80 °F (1971)
Min Temperature 35 °F 37 °F 8 °F (1975)
Degree Days  
Heating Degree Days 11 17  
Month to date heating degree days 314 264  
Since 1 July heating degree days 3430 3518  
Cooling Degree Days 0 0  
Month to date cooling degree days 0 0  
Year to date cooling degree days 1 1  
Growing Degree Days 3 (Base 50)    
Moisture  
Dew Point 31 °F    
Average Humidity 49    
Maximum Humidity 66    
Minimum Humidity 31    
Precipitation  
Precipitation 0.00 in 0.11 in 2.32 in (1990)
Month to date precipitation 0.99 1.45  
Year to date precipitation 6.14 5.80  
Snow  
Snow 0.00 in - - ()
Month to date snowfall T  
Snow Depth 0.00 in    
Sea Level Pressure  
Sea Level Pressure 30.19 in    
Wind  
Wind Speed 12 mph (SSW)    
Max Wind Speed 31 mph    
Max Gust Speed 39 mph    
Visibility 10 miles    
Events      
T = Trace of Precipitation, MM = Missing Value Source: NWS Daily Summary

Daily Weather History Graph

Daily Weather History Graph

Search for Another Location

Airport:

Trip Planner

Search our weather history database for the weather conditions in past years. The results will help you decide how hot, cold, wet, or windy it might be!

Date:

Astronomy

Mar. 14, 2013 Rise Set
Actual Time 7:30 AM CDT 7:24 PM CDT
Civil Twilight 7:04 AM CDT 7:50 PM CDT
Nautical Twilight 6:33 AM CDT 8:20 PM CDT
Astronomical Twilight 6:03 AM CDT 8:51 PM CDT
Moon 8:49 AM CDT (3/14) 10:36 PM CDT (3/14)
Length of Visible Light 12h 46m
Length of Day
11h 54m
Waxing Crescent, 9% of the Moon is Illuminated
Mar 14
Waxing Crescent
Mar 19
First Quarter
Mar 27
Full
Apr 2
Last Quarter
Apr 10
New

Hourly Weather History & Observations

Time (CDT) Temp. Windchill Dew Point Humidity Pressure Visibility Wind Dir Wind Speed Gust Speed Precip Events Conditions
12:53 AM 37.9 °F 33.5 °F 19.9 °F 48% 30.34 in 10.0 mi SE 5.8 mph - N/A   Clear
1:53 AM 35.1 °F 30.1 °F 19.9 °F 54% 30.33 in 10.0 mi ESE 5.8 mph - N/A   Clear
2:53 AM 37.0 °F 33.3 °F 19.0 °F 48% 30.31 in 10.0 mi SE 4.6 mph - N/A   Clear
3:53 AM 37.9 °F 32.7 °F 19.0 °F 47% 30.28 in 10.0 mi SE 6.9 mph - N/A   Clear
4:53 AM 37.0 °F 31.6 °F 19.0 °F 48% 30.27 in 10.0 mi SSE 6.9 mph - N/A   Clear
5:53 AM 37.9 °F 32.1 °F 19.9 °F 48% 30.26 in 10.0 mi SSE 8.1 mph - N/A   Clear
6:53 AM 41.0 °F 34.7 °F 21.9 °F 47% 30.27 in 10.0 mi South 10.4 mph - N/A   Clear
7:53 AM 43.0 °F 36.8 °F 23.0 °F 45% 30.26 in 10.0 mi South 11.5 mph - N/A   Clear
8:53 AM 48.9 °F - 24.1 °F 38% 30.24 in 10.0 mi SSW 17.3 mph 24.2 mph N/A   Clear
9:53 AM 53.1 °F - 25.0 °F 34% 30.23 in 10.0 mi SSW 26.5 mph 33.4 mph N/A   Clear
10:53 AM 57.2 °F - 28.4 °F 33% 30.21 in 10.0 mi SW 27.6 mph 33.4 mph N/A   Clear
11:53 AM 61.0 °F - 30.0 °F 31% 30.20 in 10.0 mi SW 20.7 mph 39.1 mph N/A   Clear
12:53 PM 64.9 °F - 35.1 °F 33% 30.18 in 10.0 mi SW 20.7 mph 33.4 mph N/A   Clear
1:53 PM 64.9 °F - 36.0 °F 34% 30.17 in 10.0 mi SW 23.0 mph 36.8 mph N/A   Clear
2:53 PM 66.9 °F - 37.0 °F 33% 30.13 in 10.0 mi SW 19.6 mph 28.8 mph N/A   Clear
3:53 PM 70.0 °F - 39.0 °F 32% 30.11 in 10.0 mi SW 20.7 mph 31.1 mph N/A   Clear
4:53 PM 71.1 °F - 39.0 °F 31% 30.10 in 10.0 mi WSW 16.1 mph 26.5 mph N/A   Clear
5:53 PM 71.1 °F - 39.9 °F 32% 30.09 in 10.0 mi SW 15.0 mph 19.6 mph N/A   Clear
6:53 PM 69.1 °F - 41.0 °F 36% 30.09 in 10.0 mi SW 8.1 mph - N/A   Clear
7:53 PM 61.0 °F - 41.0 °F 48% 30.09 in 10.0 mi SSW 8.1 mph - N/A   Clear
8:53 PM 57.9 °F - 39.9 °F 51% 30.10 in 10.0 mi SSW 6.9 mph - N/A   Clear
9:53 PM 55.0 °F - 39.9 °F 57% 30.10 in 10.0 mi Calm Calm - N/A   Clear
10:53 PM 53.1 °F - 39.9 °F 61% 30.10 in 10.0 mi Calm Calm - N/A   Clear
11:53 PM 50.0 °F - 39.9 °F 68% 30.10 in 10.0 mi South 3.5 mph - N/A   Clear